Regional Weather Roundup
Issued by NWS San Angelo, TX

Home | Current Version | Previous Version | Text Only | Print | Product List | Glossary On
Versions: 1 2 3 4 5 6 7 8 9 10 11 12 13 14 15 16 17 18 19 20 21 22 23 24 25 26 27 28 29 30 31 32 33 34 35 36 37 38 39 40 41 42 43 44 45 46 47 48 49 50
000
ASUS44 KSJT 032311
RWRSJT
WEST CENTRAL TEXAS REGIONAL WEATHER ROUNDUP
NATIONAL WEATHER SERVICE SAN ANGELO TX
600 PM CDT THU SEP 03 2015

NOTE: "FAIR" INDICATES FEW OR NO CLOUDS BELOW 12,000 FEET WITH NO
SIGNIFICANT WEATHER AND/OR OBSTRUCTIONS TO VISIBILITY.

TXZ049-054-064>066-071>073-076>078-098-099-113-114-127-128-139-140-
154-155-168>170-040000
...LOCATIONS ACROSS WEST CENTRAL TEXAS...

CITY           SKY/WX    TMP DP  RH WIND       PRES   REMARKS
SAN ANGELO     MOSUNNY   93  57  29 NE9       29.86F
ABILENE        SUNNY     93  57  29 SE13G20   29.88F
DYESS AFB      SUNNY     94  60  31 E8G16     29.87S
JUNCTION       SUNNY     94  57  28 SE10      29.86F
SWEETWATER     MOSUNNY   93  52  24 SE7       29.92F
BROWNWOOD      SUNNY     90  63  40 SE9       29.87S
COLEMAN        PTCLDY    94  62  34 E16       29.88F
SONORA         MOSUNNY   93  55  27 VRB5G12   29.92S
OZONA          FAIR      91  52  25 CALM      29.91F
BRADY          MOSUNNY   91  61  35 SE8       29.88S
$$

TEXAS PANHANDLE/OKLAHOMA PANHANDLE

CITY           SKY/WX    TMP DP  RH WIND       PRES   REMARKS
AMARILLO       SUNNY     89  55  31 S18G25    29.93S
BORGER         MOSUNNY   95  55  26 S15G29    29.87S
CANADIAN       SUNNY     95  58  28 S16G22    29.84S
DALHART        MOSUNNY   95  47  19 S15G28    29.90F
DUMAS          LGT RAIN  87  53  30 SE6G29    29.90R
GUYMON         NOT AVBL
HEREFORD       PTCLDY    90  56  31 S18G25    29.93F
PAMPA          CLEAR     94  54  26 S21       29.90F
PERRYTON       MOSUNNY   96  55  25 S23G32    29.85S
$$

SOUTHERN PANHANDLE/SOUTH PLAINS/ROLLING PLAINS

CITY           SKY/WX    TMP DP  RH WIND       PRES   REMARKS
LUBBOCK        MOSUNNY   92  54  27 S13       29.93F
SNYDER         SUNNY     92  56  29 SE10      29.91S
CHILDRESS      SUNNY     95  58  28 S15G22    29.85F
SEMINOLE       CLEAR     93  47  20 S13       29.94S
$$

PERMIAN BASIN

CITY           SKY/WX    TMP DP  RH WIND       PRES   REMARKS
MIDLAND        SUNNY     95  50  21 SE13G21   29.91S
ODESSA           N/A     93  49  22 S9        29.92F
WINK           SUNNY     96  46  18 E17       29.88S
$$

FAR WEST/SOUTHWEST MOUNTAINS/TRANS PECOS

CITY           SKY/WX    TMP DP  RH WIND       PRES   REMARKS
ALPINE         CLEAR     91  47  21 E10G18    30.04S
DRYDEN           N/A     96  54  24 VRB3G17   29.86F
EL PASO        CLOUDY    88  50  27 W12       29.96F
FORT STOCKTON  SUNNY     93  50  23 SE13G22   29.91S
GUADALUPE PASS CLOUDY    80  52  37 E17       30.08S
MARFA          MOSUNNY   90  39  17 E8        30.03S
PECOS          CLEAR     97  44  16 E15       29.86S
$$

DALLAS/FORT WORTH METROPLEX

CITY           SKY/WX    TMP DP  RH WIND       PRES   REMARKS
DFW AIRPORT    MOSUNNY   94  62  34 E10       29.86F
FTW MEACHAM    SUNNY     92  62  36 SE13      29.85F
DAL-EXECUTIVE  MOSUNNY   92  63  38 SE9       29.86F
GRAND PRAIRIE  SUNNY     91  64  40 E9        29.87F
ADDISON        MOSUNNY   93  61  33 SE10G17   29.88F
MESQUITE       PTCLDY    91  64  40 SE12      29.88F
LANCASTER      CLEAR     91  63  39 E12       29.88S
$$

NORTH CENTRAL TEXAS

CITY           SKY/WX    TMP DP  RH WIND       PRES   REMARKS
SHRMAN/DENISON PTCLDY    93  64  38 SE9       29.88F
GAINESVILLE    MOSUNNY   92  62  37 SE10      29.89F
BRIDGEPORT     CLEAR     93  64  37 SE9       29.88F
DENTON         MOSUNNY   91  63  39 SE10      29.86F
WAXAHACHIE     CLEAR     92  64  39 SE7       29.88F
GRANBURY       PTCLDY    94  63  35 E8        29.87S
$$

WESTERN NORTH TEXAS

CITY           SKY/WX    TMP DP  RH WIND       PRES   REMARKS
WICHITA FALLS  MOSUNNY   93  62  35 S16G22    29.85F
VERNON         CLEAR     97  46  17 SE13      29.85S
BRECKENRIDGE   CLEAR     94  57  28 SE9G16    29.86F HAZE
COMANCHE       MOSUNNY   93  61  34 E8        29.87F
$$

CENTRAL AND SOUTH CENTRAL TEXAS

CITY           SKY/WX    TMP DP  RH WIND       PRES   REMARKS
AUSTIN/BERGSTM PTSUNNY   92  66  42 E10       29.83F
WACO           SUNNY     93  64  38 SE9       29.84F
HILLSBORO      PTCLDY    92  63  38 E3        29.86F
TEMPLE         SUNNY     93  64  38 E7        29.85F
KILLEEN-GRAY   SUNNY     91  64  41 E8        29.85F
FORT HOOD      SUNNY     92  64  39 SE12      29.84F
GEORGETOWN     MOSUNNY   91  64  40 VRB8      29.86F
LAGO VISTA     FAIR      93  63  36 SE9       29.87F
SAN MARCOS     MOSUNNY   90  68  48 E9        29.85F
NEW BRAUNFELS  MOSUNNY   89  69  51 SE10      29.83F
RANDOLPH AFB   PTSUNNY   88  67  49 SE9       29.84F
SAN ANTONIO    PTSUNNY   91  67  44 SE13      29.84F
STINSON        CLOUDY    91  68  46 E10       29.81F
PLEASANTON     NOT AVBL
LA GRANGE      MOSUNNY   89  74  62 SE13      29.84R
GIDDINGS       CLOUDY    89  69  51 SE8       29.88F
$$

EAST TEXAS

CITY           SKY/WX    TMP DP  RH WIND       PRES   REMARKS
PARIS          MOSUNNY   93  63  36 S10       29.89F
CLARKSVILLE    NOT AVBL
TYLER          SUNNY     91  68  46 SE7       29.88F
LONGVIEW       MOSUNNY   91  69  48 SE6       29.88F
PALESTINE      MOCLDY    91  69  48 E5        29.88S
NACOGDOCHES    SUNNY     91  66  43 SE8       29.86F
$$

TEXAS HILL COUNTRY AND EDWARDS PLATEAU

CITY           SKY/WX    TMP DP  RH WIND       PRES   REMARKS
LLANO          CLEAR     95  63  34 E3        29.87F
HORSESHOE BAY  FAIR      92  62  36 E5        29.85F
KERRVILLE      MOSUNNY   92  64  39 E5        29.88S
FREDERICKSBRG  SUNNY     90  58  34 E6        29.88S
ROCKSPRINGS    MOCLDY    90  61  37 S5        29.93S
HONDO          SUNNY     95  62  33 E3        29.84F
UVALDE         CLEAR     95  62  32 E6        29.82F
DEL RIO        SUNNY     98  59  27 E7        29.79F
$$

SOUTHEAST TEXAS

CITY           SKY/WX    TMP DP  RH WIND       PRES   REMARKS
COLLEGE STN    MOSUNNY   90  68  48 SE9       29.85F
CALDWELL       CLEAR     90  66  45 E10       29.88S
CROCKETT       PTCLDY    86  75  70 NE5       29.89F
BRENHAM        SUNNY     87  75  67 SE5       29.87S
HUNTSVILLE     SUNNY     92  67  43 E5        29.85F
CONROE         SUNNY     89  70  53 SE10      29.87S
HOUSTON BUSH   MOSUNNY   88  72  58 SE15      29.86F
HOUSTON HOBBY  MOSUNNY   87  72  60 SE9       29.86F
PERLAND        SUNNY     89  71  55 SE12      29.88S
WHARTON        PTCLDY    86  74  67 SE12      29.86S
$$

THE UPPER TEXAS COAST

CITY           SKY/WX    TMP DP  RH WIND       PRES   REMARKS
ORANGE         CLEAR     86  67  53 SE3       29.90F
PORT ARTHUR    MOSUNNY   86  73  65 S12       29.87F
GALVESTON      MOSUNNY   86  77  74 E10       29.88F
ANGLETON       SUNNY     87  75  67 SE8       29.86F
BAY CITY       CLEAR     87  76  68 SE9       29.85F
$$

TEXAS COASTAL BEND, RIO GRANDE PLAINS DEEP SOUTH TEXAS

CITY           SKY/WX    TMP DP  RH WIND       PRES   REMARKS
VICTORIA       MOSUNNY   86  76  71 SE13      29.84F
BEEVILLE       FAIR      90  73  57 E8        29.82F
ROCKPORT       SUNNY     87  75  67 SE14      29.82F
PORT ARANSAS   CLEAR     86  75  69 E9        29.83F
PORT LAVACA    MOCLDY    85  77  75 SE14      29.84F
CORPUS CHRISTI MOSUNNY   90  73  57 E15       29.82S
KINGSVILLE NAS MOSUNNY   90  77  65 SE14G23   29.80F
COTULLA        SUNNY     99  64  31 E10       29.78F
LAREDO         MOSUNNY   98  63  31 E12       29.79F
BROWNSVILLE    MOSUNNY   90  75  61 E14       29.80F
PORT ISABEL    SUNNY     89  77  67 E15       29.81S
HEBBRONVILLE   NOT AVBL
MCALLEN        SUNNY     94  72  48 E14       29.79S
WESLACO        MOSUNNY   90  72  55 E9        29.79F
FALFURRIAS     CLEAR     92  73  52 E12G18    29.80S
EDINBURG       CLEAR     92  73  53 SE17      29.80S
$$


USA.gov is the U.S. government's official web portal to all federal, state and local government web resources and services.